DELTA 1 DEB, 21380

Orbit data source: Space-Track

DELTA 1 DEB, 21380 is space debris in SSO originally from a launch on Thu, 12 Jun 1975 UTC launched from the Air Force Western Test Range (AFWTR). Debris objects in space refer to the collection of defunct objects orbiting the Earth. Examples of debris include non-operational satellites, rocket bodies, and fragments generated from explosions, collisions, or faulty payload assembly.

Loading next visibility...
Identifier
21380, 1975-052DA
Orbit
SSO
Country
Flag of USUS
Related business
Manufacturer
Unknown
Mission
Spacecraft
Bus & Motor
Unknown
Mass
Unknown
Launch date (UTC)
1975-06-12 (51 years ago)
Launch vehicle
Unknown
Launch site
Air Force Western Test Range (AFWTR)
Object type
Payload
Rocket body
Debris
Shape & HBR
Unknown shape, 0.1 m
Radar Cross Section
Small (<0.1 m²)

Expand to show TLE details & history
Last TLE update: 7 hours ago

TLE from 7 hours ago
0 DELTA 1 DEB
1 21380U 75052DA  25354.13473823  .00000500  00000-0  68876-3 0  9996
2 21380  99.3970 315.7784 0056386 259.4876 116.5423 13.62800302714220
Epoch: 2025-12-20T03:14Z
TLE epoch observation values (Epoch: 2025-12-20T03:14:01.383Z)
Latitude
16.36101°
Longitude
175.53626°
Altitude
1,046.548 km
Speed
7.321 km/s
True Right ascension
20h 52m 01s
True Declination
16° 16' 19"
Sunlit
Object was in daylight at epoch
Visualization orbit readout
Latitude
Unknown
Longitude
Unknown
Altitude
Unknown
Speed
Unknown
Apparent Right ascension
Unknown
Apparent Declination
Unknown
Sunlit
N/A
Visualization observer readout
Local Sidereal Time
08:52:39
Azimuth
Unknown
Elevation
Unknown
Doppler factor
Unknown
Orbital elements
Apogee altitude
1,064.532 km
Perigee altitude
981.07 km
Semi-major axis
7,400.938 km
Eccentricity
0.00564
Inclination
99.397°
RAAN
315.7784°
Arg. of periapsis
259.4876°
True anomaly
117.11851°
Mean anomaly
116.5423°
Eccentric anomaly
116.83059°
Mean motion
3.40889 °/min
Orbital period
105.61 mins
BSTAR
0.00068876
Loading maneuver chart data...
Computing Atmospheric mass density...
Loading historical data...
Loading historical data...
Loading historical data...
Loading historical data...
Loading historical data...
Loading historical data...
Loading historical data...

Documentation

Showing up to 5 results
|